owner,sensor,date,latitude,longitude,vertical_datum,wind_speed,wind_to_direction,wind_speed_of_gust,qcFlag 
TABS,ioos:station:wmo:42046:1,2015-01-01T00:00:00Z,27.8903,-94.0367,4.0,7.727172834,56.72089444,9.2,'11111222,11111222,11111222' 
TABS,ioos:station:wmo:42046:1,2015-01-01T00:30:00Z,27.8903,-94.0367,4.0,8.396195567,57.10452351,10.58,'11111222,11111222,11111222' 
TABS,ioos:station:wmo:42046:1,2015-01-01T01:00:00Z,27.8903,-94.0367,4.0,8.878203647,64.30045326,10.64,'11111222,11111222,11111222' 
TABS,ioos:station:wmo:42046:1,2015-01-01T01:30:00Z,27.8903,-94.0367,4.0,9.947713305,68.10196142,12.41,'11111222,11111222,11111222' 
TABS,ioos:station:wmo:42046:1,2015-01-01T02:00:00Z,27.8903,-94.0367,4.0,10.03230781,70.5532538,11.57,'11111222,11111222,11111222' 
TABS,ioos:station:wmo:42046:1,2015-01-01T02:30:00Z,27.8903,-94.0367,4.0,9.570752322,68.09817008,12.14,'11111222,11111222,11111222' 
TABS,ioos:station:wmo:42046:1,2015-01-01T03:00:00Z,27.8903,-94.0367,4.0,10.16012795,65.02362576,12.59,'11111222,11111222,11111222' 
TABS,ioos:station:wmo:42046:1,2015-01-01T03:30:00Z,27.8903,-94.0367,4.0,10.58513108,77.39447698,12.55,'11111222,11111222,11111222' 
TABS,ioos:station:wmo:42046:1,2015-01-01T04:00:00Z,27.8903,-94.0367,4.0,10.30146106,80.16238466,12.41,'11111222,11111222,11111222' 
TABS,ioos:station:wmo:42046:1,2015-01-01T04:30:00Z,27.8903,-94.0367,4.0,10.21577212,80.64792382,12.46,'11111222,11111222,11111222' 
TABS,ioos:station:wmo:42046:1,2015-01-01T05:00:00Z,27.8903,-94.0367,4.0,9.309806657,79.03969476,11.43,'11111222,11111222,11111222' 
TABS,ioos:station:wmo:42046:1,2015-01-01T05:30:00Z,27.8903,-94.0367,4.0,9.539103731,79.85592547,11.38,'11111222,11111222,11111222' 
TABS,ioos:station:wmo:42046:1,2015-01-01T06:00:00Z,27.8903,-94.0367,4.0,10.21211535,79.16281628,12.07,'11111222,11111222,11111222' 
TABS,ioos:station:wmo:42046:1,2015-01-01T06:30:00Z,27.8903,-94.0367,4.0,10.45120567,79.02297104,12.48,'11111222,11111222,11111222' 
TABS,ioos:station:wmo:42046:1,2015-01-01T07:00:00Z,27.8903,-94.0367,4.0,10.24173813,81.9169652,12.27,'11111222,11111222,11111222' 
TABS,ioos:station:wmo:42046:1,2015-01-01T07:30:00Z,27.8903,-94.0367,4.0,10.84797216,84.07352412,13.17,'11111222,11111222,11111222' 
TABS,ioos:station:wmo:42046:1,2015-01-01T08:00:00Z,27.8903,-94.0367,4.0,10.25362863,80.73937921,12.31,'11111222,11111222,11111222' 
TABS,ioos:station:wmo:42046:1,2015-01-01T08:30:00Z,27.8903,-94.0367,4.0,9.041178021,83.33048244,10.93,'11111222,11111222,11111222' 
TABS,ioos:station:wmo:42046:1,2015-01-01T09:00:00Z,27.8903,-94.0367,4.0,8.82580308,92.07826311,11.1,'11111222,11111222,11111222' 
TABS,ioos:station:wmo:42046:1,2015-01-01T09:30:00Z,27.8903,-94.0367,4.0,9.017189141,92.28848602,10.23,'11111222,11111222,11111222' 
TABS,ioos:station:wmo:42046:1,2015-01-01T10:00:00Z,27.8903,-94.0367,4.0,8.520011737,97.35063162,10.05,'11111222,11111222,11111222' 
TABS,ioos:station:wmo:42046:1,2015-01-01T10:30:00Z,27.8903,-94.0367,4.0,8.373111727,99.00148583,10.31,'11111222,11111222,11111222' 
TABS,ioos:station:wmo:42046:1,2015-01-01T11:00:00Z,27.8903,-94.0367,4.0,8.680276493,99.54953252,10.54,'11111222,11111222,11111222' 
TABS,ioos:station:wmo:42046:1,2015-01-01T11:30:00Z,27.8903,-94.0367,4.0,8.154048074,97.18642903,9.51,'11111222,11111222,11111222' 
TABS,ioos:station:wmo:42046:1,2015-01-01T12:00:00Z,27.8903,-94.0367,4.0,8.76632192,95.89309749,10.9,'11111222,11111222,11111222' 
TABS,ioos:station:wmo:42046:1,2015-01-01T12:30:00Z,27.8903,-94.0367,4.0,7.753502434,95.32864324,8.99,'11111222,11111222,11111222' 
TABS,ioos:station:wmo:42046:1,2015-01-01T13:00:00Z,27.8903,-94.0367,4.0,6.700746227,90.85551631,7.95,'11111222,11111222,11111222' 
TABS,ioos:station:wmo:42046:1,2015-01-01T13:30:00Z,27.8903,-94.0367,4.0,7.720032383,103.7126257,8.81,'11111222,11111222,11111222' 
TABS,ioos:station:wmo:42046:1,2015-01-01T14:00:00Z,27.8903,-94.0367,4.0,7.775737907,103.8400471,9.15,'11111222,11111222,11111222' 
TABS,ioos:station:wmo:42046:1,2015-01-01T14:30:00Z,27.8903,-94.0367,4.0,7.268080902,101.1866452,9.06,'11111222,11111222,11111222' 
TABS,ioos:station:wmo:42046:1,2015-01-01T15:00:00Z,27.8903,-94.0367,4.0,7.976872821,105.4129957,9.37,'11111222,11111222,11111222' 
TABS,ioos:station:wmo:42046:1,2015-01-01T15:30:00Z,27.8903,-94.0367,4.0,9.014344125,114.2339058,10.45,'11111222,11111222,11111222' 
TABS,ioos:station:wmo:42046:1,2015-01-01T16:00:00Z,27.8903,-94.0367,4.0,8.692525525,113.0258591,10.3,'11111222,11111222,11111222' 
TABS,ioos:station:wmo:42046:1,2015-01-01T16:30:00Z,27.8903,-94.0367,4.0,8.834709956,114.3316059,10.02,'11111222,11111222,11111222' 
TABS,ioos:station:wmo:42046:1,2015-01-01T17:00:00Z,27.8903,-94.0367,4.0,9.020448991,110.3036557,10.59,'11111222,11111222,11111222' 
TABS,ioos:station:wmo:42046:1,2015-01-01T17:30:00Z,27.8903,-94.0367,4.0,8.501870382,117.0777719,10.0,'11111222,11111222,11111222' 
TABS,ioos:station:wmo:42046:1,2015-01-01T18:00:00Z,27.8903,-94.0367,4.0,8.046179217,111.8150025,9.53,'11111222,11111222,11111222' 
TABS,ioos:station:wmo:42046:1,2015-01-01T18:30:00Z,27.8903,-94.0367,4.0,8.295070825,112.0198276,10.16,'11111222,11111222,11111222' 
TABS,ioos:station:wmo:42046:1,2015-01-01T19:00:00Z,27.8903,-94.0367,4.0,8.199280456,115.3465376,10.81,'11111222,11111222,11111222' 
TABS,ioos:station:wmo:42046:1,2015-01-01T19:30:00Z,27.8903,-94.0367,4.0,6.79342329,117.0557491,7.8,'11111222,11111222,11111222' 
TABS,ioos:station:wmo:42046:1,2015-01-01T20:00:00Z,27.8903,-94.0367,4.0,6.689469336,135.4848339,7.73,'11111222,11111222,11111222' 
TABS,ioos:station:wmo:42046:1,2015-01-01T20:30:00Z,27.8903,-94.0367,4.0,5.719589146,138.8991942,6.63,'11111222,11111222,11111222' 
TABS,ioos:station:wmo:42046:1,2015-01-01T21:00:00Z,27.8903,-94.0367,4.0,5.25404606,142.8904872,6.19,'11111222,11111222,11111222' 
TABS,ioos:station:wmo:42046:1,2015-01-01T21:30:00Z,27.8903,-94.0367,4.0,5.828979327,147.7552599,6.93,'11111222,11111222,11111222' 
TABS,ioos:station:wmo:42046:1,2015-01-01T22:00:00Z,27.8903,-94.0367,4.0,5.548333083,151.5876155,6.8,'11111222,11111222,11111222' 
TABS,ioos:station:wmo:42046:1,2015-01-01T22:30:00Z,27.8903,-94.0367,4.0,6.190290785,152.4831415,7.38,'11111222,11111222,11111222' 
TABS,ioos:station:wmo:42046:1,2015-01-01T23:00:00Z,27.8903,-94.0367,4.0,7.638645168,146.9135305,8.93,'11111222,11111222,11111222' 
TABS,ioos:station:wmo:42046:1,2015-01-01T23:30:00Z,27.8903,-94.0367,4.0,7.957191716,146.4300451,9.21,'11111222,11111222,11111222' 
TABS,ioos:station:wmo:42046:1,2015-01-02T00:00:00Z,27.8903,-94.0367,4.0,7.468768305,148.9707449,8.65,'11111222,11111222,11111222' 
TABS,ioos:station:wmo:42046:1,2015-01-02T00:30:00Z,27.8903,-94.0367,4.0,7.1108368,153.7955666,8.16,'11111222,11111222,11111222' 
TABS,ioos:station:wmo:42046:1,2015-01-02T01:00:00Z,27.8903,-94.0367,4.0,7.324616031,157.3563297,8.5,'11111222,11111222,11111222' 
TABS,ioos:station:wmo:42046:1,2015-01-02T01:30:00Z,27.8903,-94.0367,4.0,6.110073649,160.7942919,7.06,'11111222,11111222,11111222' 
TABS,ioos:station:wmo:42046:1,2015-01-02T02:00:00Z,27.8903,-94.0367,4.0,6.09926225,159.9609706,7.51,'11111222,11111222,11111222' 
TABS,ioos:station:wmo:42046:1,2015-01-02T02:30:00Z,27.8903,-94.0367,4.0,6.746680665,158.7981239,7.89,'11111222,11111222,11111222' 
TABS,ioos:station:wmo:42046:1,2015-01-02T03:00:00Z,27.8903,-94.0367,4.0,6.984969578,164.471745,8.01,'11111222,11111222,11111222' 
TABS,ioos:station:wmo:42046:1,2015-01-02T03:30:00Z,27.8903,-94.0367,4.0,6.53104892,168.0709162,7.61,'11111222,11111222,11111222' 
TABS,ioos:station:wmo:42046:1,2015-01-02T04:00:00Z,27.8903,-94.0367,4.0,6.795366068,167.334252,7.82,'11111222,11111222,11111222' 
TABS,ioos:station:wmo:42046:1,2015-01-02T04:30:00Z,27.8903,-94.0367,4.0,6.19038771,193.0711078,7.52,'11111222,11111222,11111222' 
TABS,ioos:station:wmo:42046:1,2015-01-02T05:00:00Z,27.8903,-94.0367,4.0,6.038161972,200.6561611,7.34,'11111222,11111222,11111222' 
TABS,ioos:station:wmo:42046:1,2015-01-02T05:30:00Z,27.8903,-94.0367,4.0,6.808472663,202.723596,8.36,'11111222,11111222,11111222' 
TABS,ioos:station:wmo:42046:1,2015-01-02T06:00:00Z,27.8903,-94.0367,4.0,6.409906396,204.1260077,7.72,'11111222,11111222,11111222' 
TABS,ioos:station:wmo:42046:1,2015-01-02T06:30:00Z,27.8903,-94.0367,4.0,5.85884801,212.5238297,7.12,'11111222,11111222,11111222' 
TABS,ioos:station:wmo:42046:1,2015-01-02T07:00:00Z,27.8903,-94.0367,4.0,5.833189522,214.4530063,6.77,'11111222,11111222,11111222' 
TABS,ioos:station:wmo:42046:1,2015-01-02T07:30:00Z,27.8903,-94.0367,4.0,5.498881704,218.7250185,6.68,'11111222,11111222,11111222' 
TABS,ioos:station:wmo:42046:1,2015-01-02T08:00:00Z,27.8903,-94.0367,4.0,5.084142012,216.4417776,6.16,'11111222,11111222,11111222' 
TABS,ioos:station:wmo:42046:1,2015-01-02T08:30:00Z,27.8903,-94.0367,4.0,4.78023012,225.5086331,5.49,'11111222,11111222,11111222' 
TABS,ioos:station:wmo:42046:1,2015-01-02T09:00:00Z,27.8903,-94.0367,4.0,4.702520601,225.603195,5.43,'11111222,11111222,11111222' 
TABS,ioos:station:wmo:42046:1,2015-01-02T09:30:00Z,27.8903,-94.0367,4.0,4.628131372,227.2767149,5.5,'11111222,11111222,11111222' 
TABS,ioos:station:wmo:42046:1,2015-01-02T10:00:00Z,27.8903,-94.0367,4.0,3.303891645,223.1604065,3.92,'11111222,11111222,11111222' 
TABS,ioos:station:wmo:42046:1,2015-01-02T10:30:00Z,27.8903,-94.0367,4.0,3.728391074,217.69989,4.44,'11111222,11111222,11111222' 
TABS,ioos:station:wmo:42046:1,2015-01-02T11:00:00Z,27.8903,-94.0367,4.0,4.455333882,225.9094836,5.39,'11111222,11111222,11111222' 
TABS,ioos:station:wmo:42046:1,2015-01-02T11:30:00Z,27.8903,-94.0367,4.0,2.947303853,228.5764312,3.7,'11111222,11111222,11111222' 
TABS,ioos:station:wmo:42046:1,2015-01-02T12:00:00Z,27.8903,-94.0367,4.0,2.929846412,231.0959525,3.65,'11111222,11111222,11111222' 
TABS,ioos:station:wmo:42046:1,2015-01-02T12:30:00Z,27.8903,-94.0367,4.0,1.798360364,215.7229876,2.35,'11111222,11111222,11111222' 
TABS,ioos:station:wmo:42046:1,2015-01-02T13:00:00Z,27.8903,-94.0367,4.0,0.794040301,196.8376437,1.09,'11111222,11111222,11111222' 
TABS,ioos:station:wmo:42046:1,2015-01-02T13:30:00Z,27.8903,-94.0367,4.0,1.570031847,127.2351678,2.5,'11111222,11111222,11111222' 
TABS,ioos:station:wmo:42046:1,2015-01-02T14:00:00Z,27.8903,-94.0367,4.0,2.383652659,116.6729064,2.84,'11111222,11111222,11111222' 
TABS,ioos:station:wmo:42046:1,2015-01-02T14:30:00Z,27.8903,-94.0367,4.0,1.587513779,107.9787973,2.15,'11111222,11111222,11111222' 
TABS,ioos:station:wmo:42046:1,2015-01-02T15:00:00Z,27.8903,-94.0367,4.0,3.819554948,94.05396567,4.81,'11111222,11111222,11111222' 
TABS,ioos:station:wmo:42046:1,2015-01-02T15:30:00Z,27.8903,-94.0367,4.0,4.999849998,97.23913049,5.97,'11111222,11111222,11111222' 
TABS,ioos:station:wmo:42046:1,2015-01-02T16:00:00Z,27.8903,-94.0367,4.0,4.327817002,86.55538462,5.06,'11111222,11111222,11111222' 
TABS,ioos:station:wmo:42046:1,2015-01-02T16:30:00Z,27.8903,-94.0367,4.0,5.306543131,107.88902,6.15,'11111222,11111222,11111222' 
TABS,ioos:station:wmo:42046:1,2015-01-02T17:00:00Z,27.8903,-94.0367,4.0,5.608440068,106.0440086,6.63,'11111222,11111222,11111222' 
TABS,ioos:station:wmo:42046:1,2015-01-02T17:30:00Z,27.8903,-94.0367,4.0,4.912453562,102.8201661,6.01,'11111222,11111222,11111222' 
TABS,ioos:station:wmo:42046:1,2015-01-02T18:00:00Z,27.8903,-94.0367,4.0,4.217688941,115.7148478,5.52,'11111222,11111222,11111222' 
TABS,ioos:station:wmo:42046:1,2015-01-02T18:30:00Z,27.8903,-94.0367,4.0,4.366337138,122.5621152,5.37,'11111222,11111222,11111222' 
TABS,ioos:station:wmo:42046:1,2015-01-02T19:00:00Z,27.8903,-94.0367,4.0,3.847596652,133.7366461,4.5,'11111222,11111222,11111222' 
TABS,ioos:station:wmo:42046:1,2015-01-02T19:30:00Z,27.8903,-94.0367,4.0,4.858075751,134.4165375,5.63,'11111222,11111222,11111222' 
TABS,ioos:station:wmo:42046:1,2015-01-02T20:00:00Z,27.8903,-94.0367,4.0,5.678468103,140.0009486,6.59,'11111222,11111222,11111222' 
TABS,ioos:station:wmo:42046:1,2015-01-02T20:30:00Z,27.8903,-94.0367,4.0,6.458707301,136.6942168,7.47,'11111222,11111222,11111222' 
TABS,ioos:station:wmo:42046:1,2015-01-02T21:00:00Z,27.8903,-94.0367,4.0,6.810029369,143.2986677,7.9,'11111222,11111222,11111222' 
TABS,ioos:station:wmo:42046:1,2015-01-02T21:30:00Z,27.8903,-94.0367,4.0,6.772001181,143.1642417,7.84,'11111222,11111222,11111222' 
TABS,ioos:station:wmo:42046:1,2015-01-02T22:00:00Z,27.8903,-94.0367,4.0,7.120407292,140.6995722,8.27,'11111222,11111222,11111222' 
TABS,ioos:station:wmo:42046:1,2015-01-02T22:30:00Z,27.8903,-94.0367,4.0,7.508928019,141.0544934,8.73,'11111222,11111222,11111222' 
TABS,ioos:station:wmo:42046:1,2015-01-02T23:00:00Z,27.8903,-94.0367,4.0,7.927395537,141.453368,9.3,'11111222,11111222,11111222' 
TABS,ioos:station:wmo:42046:1,2015-01-02T23:30:00Z,27.8903,-94.0367,4.0,7.862168912,144.9963318,9.15,'11111222,11111222,11111222' 
TABS,ioos:station:wmo:42046:1,2015-01-03T00:00:00Z,27.8903,-94.0367,4.0,7.800083333,145.3934066,9.01,'11111222,11111222,11111222' 
TABS,ioos:station:wmo:42046:1,2015-01-03T00:30:00Z,27.8903,-94.0367,4.0,8.262929263,155.854725,11.24,'11111222,11111222,11111222' 
TABS,ioos:station:wmo:42046:1,2015-01-03T01:00:00Z,27.8903,-94.0367,4.0,7.831660105,150.5548506,9.46,'11111222,11111222,11111222' 
TABS,ioos:station:wmo:42046:1,2015-01-03T01:30:00Z,27.8903,-94.0367,4.0,7.794202974,151.6596907,9.08,'11111222,11111222,11111222' 
TABS,ioos:station:wmo:42046:1,2015-01-03T02:00:00Z,27.8903,-94.0367,4.0,8.198127835,154.185367,9.27,'11111222,11111222,11111222' 
TABS,ioos:station:wmo:42046:1,2015-01-03T02:30:00Z,27.8903,-94.0367,4.0,8.439603071,152.7065402,9.73,'11111222,11111222,11111222' 
TABS,ioos:station:wmo:42046:1,2015-01-03T03:00:00Z,27.8903,-94.0367,4.0,9.020338131,153.6056591,10.82,'11111222,11111222,11111222' 
TABS,ioos:station:wmo:42046:1,2015-01-03T03:30:00Z,27.8903,-94.0367,4.0,9.603025565,154.3958409,12.15,'11111222,11111222,11111222' 
TABS,ioos:station:wmo:42046:1,2015-01-03T04:00:00Z,27.8903,-94.0367,4.0,10.35745142,128.7292529,12.18,'11111222,11111222,11111222' 
TABS,ioos:station:wmo:42046:1,2015-01-03T04:30:00Z,27.8903,-94.0367,4.0,9.545684889,137.1653913,11.99,'11111222,11111222,11111222' 
TABS,ioos:station:wmo:42046:1,2015-01-03T05:00:00Z,27.8903,-94.0367,4.0,9.360902734,150.2857661,12.34,'11111222,11111222,11111222' 
TABS,ioos:station:wmo:42046:1,2015-01-03T05:30:00Z,27.8903,-94.0367,4.0,10.6309454,159.6902241,12.28,'11111222,11111222,11111222' 
TABS,ioos:station:wmo:42046:1,2015-01-03T06:00:00Z,27.8903,-94.0367,4.0,10.74154551,157.4460479,12.84,'11111222,11111222,11111222' 
TABS,ioos:station:wmo:42046:1,2015-01-03T06:30:00Z,27.8903,-94.0367,4.0,10.54309253,159.5714237,12.3,'11111222,11111222,11111222' 
TABS,ioos:station:wmo:42046:1,2015-01-03T07:00:00Z,27.8903,-94.0367,4.0,10.09733133,161.2243701,11.54,'11111222,11111222,11111222' 
TABS,ioos:station:wmo:42046:1,2015-01-03T07:30:00Z,27.8903,-94.0367,4.0,8.60467896,167.7892163,10.1,'11111222,11111222,11111222' 
TABS,ioos:station:wmo:42046:1,2015-01-03T08:00:00Z,27.8903,-94.0367,4.0,8.693905912,169.9311713,10.34,'11111222,11111222,11111222' 
TABS,ioos:station:wmo:42046:1,2015-01-03T08:30:00Z,27.8903,-94.0367,4.0,8.949469258,172.3590477,10.75,'11111222,11111222,11111222' 
TABS,ioos:station:wmo:42046:1,2015-01-03T09:00:00Z,27.8903,-94.0367,4.0,9.793109823,173.4920495,12.15,'11111222,11111222,11111222' 
TABS,ioos:station:wmo:42046:1,2015-01-03T09:30:00Z,27.8903,-94.0367,4.0,9.100137362,180.3150185,10.41,'11111222,11111222,11111222' 
TABS,ioos:station:wmo:42046:1,2015-01-03T10:00:00Z,27.8903,-94.0367,4.0,9.06755204,182.3387993,10.68,'11111222,11111222,11111222' 
TABS,ioos:station:wmo:42046:1,2015-01-03T10:30:00Z,27.8903,-94.0367,4.0,8.676819694,183.5682984,10.87,'11111222,11111222,11111222' 
TABS,ioos:station:wmo:42046:1,2015-01-03T11:00:00Z,27.8903,-94.0367,4.0,9.661324961,180.9491199,11.35,'11111222,11111222,11111222' 
TABS,ioos:station:wmo:42046:1,2015-01-03T11:30:00Z,27.8903,-94.0367,4.0,9.101076859,180.8816124,10.59,'11111222,11111222,11111222' 
TABS,ioos:station:wmo:42046:1,2015-01-03T12:00:00Z,27.8903,-94.0367,4.0,9.358552238,182.4498674,10.85,'11111222,11111222,11111222' 
TABS,ioos:station:wmo:42046:1,2015-01-03T12:30:00Z,27.8903,-94.0367,4.0,8.295794115,182.1417518,10.14,'11111222,11111222,11111222' 
TABS,ioos:station:wmo:42046:1,2015-01-03T13:00:00Z,27.8903,-94.0367,4.0,8.223442102,183.276653,9.61,'11111222,11111222,11111222' 
TABS,ioos:station:wmo:42046:1,2015-01-03T13:30:00Z,27.8903,-94.0367,4.0,8.199146297,183.9165401,10.06,'11111222,11111222,11111222' 
TABS,ioos:station:wmo:42046:1,2015-01-03T14:00:00Z,27.8903,-94.0367,4.0,7.256479863,186.4886181,9.13,'11111222,11111222,11111222' 
TABS,ioos:station:wmo:42046:1,2015-01-03T14:30:00Z,27.8903,-94.0367,4.0,7.275877954,187.1056753,8.25,'11111222,11111222,11111222' 
TABS,ioos:station:wmo:42046:1,2015-01-03T15:00:00Z,27.8903,-94.0367,4.0,6.143940104,272.0520606,8.22,'11111222,11111222,11111222' 
TABS,ioos:station:wmo:42046:1,2015-01-03T15:30:00Z,27.8903,-94.0367,4.0,6.026881449,303.4263199,7.35,'11111222,11111222,11111222' 
TABS,ioos:station:wmo:42046:1,2015-01-03T16:00:00Z,27.8903,-94.0367,4.0,5.781600125,308.8918707,7.01,'11111222,11111222,11111222' 
TABS,ioos:station:wmo:42046:1,2015-01-03T16:30:00Z,27.8903,-94.0367,4.0,5.546927077,319.5330338,7.16,'11111222,11111222,11111222' 
TABS,ioos:station:wmo:42046:1,2015-01-03T17:00:00Z,27.8903,-94.0367,4.0,3.818114718,319.8868932,5.29,'11111222,11111222,11111222' 
TABS,ioos:station:wmo:42046:1,2015-01-03T17:30:00Z,27.8903,-94.0367,4.0,5.242642463,313.0675762,7.03,'11111222,11111222,11111222' 
TABS,ioos:station:wmo:42046:1,2015-01-03T18:00:00Z,27.8903,-94.0367,4.0,6.205304183,298.1756174,8.34,'11111222,11111222,11111222' 
TABS,ioos:station:wmo:42046:1,2015-01-03T18:30:00Z,27.8903,-94.0367,4.0,6.746258222,290.4764751,8.13,'11111222,11111222,11111222' 
TABS,ioos:station:wmo:42046:1,2015-01-03T19:00:00Z,27.8903,-94.0367,4.0,5.818221378,293.3924951,7.47,'11111222,11111222,11111222' 
TABS,ioos:station:wmo:42046:1,2015-01-03T19:30:00Z,27.8903,-94.0367,4.0,7.283302822,289.1563499,8.41,'11111222,11111222,11111222' 
TABS,ioos:station:wmo:42046:1,2015-01-03T20:00:00Z,27.8903,-94.0367,4.0,6.824338796,288.8066053,7.84,'11111222,11111222,11111222' 
TABS,ioos:station:wmo:42046:1,2015-01-03T20:30:00Z,27.8903,-94.0367,4.0,8.401077312,294.2463467,10.34,'11111222,11111222,11111222' 
TABS,ioos:station:wmo:42046:1,2015-01-03T21:00:00Z,27.8903,-94.0367,4.0,8.114733514,294.2276887,10.34,'11111222,11111222,11111222' 
TABS,ioos:station:wmo:42046:1,2015-01-03T21:30:00Z,27.8903,-94.0367,4.0,7.628630283,300.3969291,8.91,'11111222,11111222,11111222' 
TABS,ioos:station:wmo:42046:1,2015-01-03T22:00:00Z,27.8903,-94.0367,4.0,8.396719598,310.0238959,10.01,'11111222,11111222,11111222' 
TABS,ioos:station:wmo:42046:1,2015-01-03T22:30:00Z,27.8903,-94.0367,4.0,7.343255409,316.7656753,8.84,'11111222,11111222,11111222' 
TABS,ioos:station:wmo:42046:1,2015-01-03T23:00:00Z,27.8903,-94.0367,4.0,8.061463887,314.396805,10.91,'11111222,11111222,11111222' 
TABS,ioos:station:wmo:42046:1,2015-01-03T23:30:00Z,27.8903,-94.0367,4.0,7.035296724,332.6699327,8.45,'11111222,11111222,11111222' 
TABS,ioos:station:wmo:42046:1,2015-01-04T00:00:00Z,27.8903,-94.0367,4.0,7.195116399,327.0828254,8.5,'11111222,11111222,11111222' 
TABS,ioos:station:wmo:42046:1,2015-01-04T00:30:00Z,27.8903,-94.0367,4.0,6.501115289,326.480905,7.99,'11111222,11111222,11111222' 
TABS,ioos:station:wmo:42046:1,2015-01-04T01:00:00Z,27.8903,-94.0367,4.0,5.147708228,326.6493723,6.6,'11111222,11111222,11111222' 
TABS,ioos:station:wmo:42046:1,2015-01-04T01:30:00Z,27.8903,-94.0367,4.0,4.238914956,319.0174064,5.34,'11111222,11111222,11111222' 
TABS,ioos:station:wmo:42046:1,2015-01-04T02:00:00Z,27.8903,-94.0367,4.0,4.266169242,307.380167,5.64,'11111222,11111222,11111222' 
TABS,ioos:station:wmo:42046:1,2015-01-04T02:30:00Z,27.8903,-94.0367,4.0,3.27340801,308.5503751,4.2,'11111222,11111222,11111222' 
TABS,ioos:station:wmo:42046:1,2015-01-04T03:00:00Z,27.8903,-94.0367,4.0,3.536170245,311.2163134,4.74,'11111222,11111222,11111222' 
TABS,ioos:station:wmo:42046:1,2015-01-04T03:30:00Z,27.8903,-94.0367,4.0,3.804655043,314.1479777,4.97,'11111222,11111222,11111222' 
TABS,ioos:station:wmo:42046:1,2015-01-04T04:00:00Z,27.8903,-94.0367,4.0,4.742921041,325.7402137,5.66,'11111222,11111222,11111222' 
TABS,ioos:station:wmo:42046:1,2015-01-04T04:30:00Z,27.8903,-94.0367,4.0,3.641565597,338.5782538,4.84,'11111222,11111222,11111222' 
TABS,ioos:station:wmo:42046:1,2015-01-04T05:00:00Z,27.8903,-94.0367,4.0,1.884515853,346.1847965,2.87,'11111222,11111222,11111222' 
TABS,ioos:station:wmo:42046:1,2015-01-04T05:30:00Z,27.8903,-94.0367,4.0,2.496096953,343.2346262,3.67,'11111222,11111222,11111222' 
TABS,ioos:station:wmo:42046:1,2015-01-04T06:00:00Z,27.8903,-94.0367,4.0,3.55877788,329.6159452,4.45,'11111222,11111222,11111222' 
TABS,ioos:station:wmo:42046:1,2015-01-04T06:30:00Z,27.8903,-94.0367,4.0,4.05513255,331.0962116,4.97,'11111222,11111222,11111222' 
TABS,ioos:station:wmo:42046:1,2015-01-04T07:00:00Z,27.8903,-94.0367,4.0,3.945883931,331.8761199,4.92,'11111222,11111222,11111222' 
TABS,ioos:station:wmo:42046:1,2015-01-04T07:30:00Z,27.8903,-94.0367,4.0,4.346320283,345.6118801,5.81,'11111222,11111222,11111222' 
TABS,ioos:station:wmo:42046:1,2015-01-04T08:00:00Z,27.8903,-94.0367,4.0,5.673958054,347.0657533,6.96,'11111222,11111222,11111222' 
TABS,ioos:station:wmo:42046:1,2015-01-04T08:30:00Z,27.8903,-94.0367,4.0,6.239238736,341.3035269,7.46,'11111222,11111222,11111222' 
TABS,ioos:station:wmo:42046:1,2015-01-04T09:00:00Z,27.8903,-94.0367,4.0,7.25206867,353.825383,8.85,'11111222,11111222,11111222' 
TABS,ioos:station:wmo:42046:1,2015-01-04T09:30:00Z,27.8903,-94.0367,4.0,7.589953887,4.155315384,8.98,'11111222,11111222,11111222' 
TABS,ioos:station:wmo:42046:1,2015-01-04T10:00:00Z,27.8903,-94.0367,4.0,8.536380966,2.215280586,10.06,'11111222,11111222,11111222' 
TABS,ioos:station:wmo:42046:1,2015-01-04T10:30:00Z,27.8903,-94.0367,4.0,9.021230515,4.768694478,10.78,'11111222,11111222,11111222' 
TABS,ioos:station:wmo:42046:1,2015-01-04T11:00:00Z,27.8903,-94.0367,4.0,8.840361984,0.518288016,10.18,'11111222,11111222,11111222' 
TABS,ioos:station:wmo:42046:1,2015-01-04T11:30:00Z,27.8903,-94.0367,4.0,8.866910398,357.7375938,10.66,'11111222,11111222,11111222' 
TABS,ioos:station:wmo:42046:1,2015-01-04T12:00:00Z,27.8903,-94.0367,4.0,9.0542918,349.7572266,10.77,'11111222,11111222,11111222' 
TABS,ioos:station:wmo:42046:1,2015-01-04T12:30:00Z,27.8903,-94.0367,4.0,9.357307305,345.5180541,11.09,'11111222,11111222,11111222' 
TABS,ioos:station:wmo:42046:1,2015-01-04T13:00:00Z,27.8903,-94.0367,4.0,9.575771509,344.5557859,11.09,'11111222,11111222,11111222' 
TABS,ioos:station:wmo:42046:1,2015-01-04T13:30:00Z,27.8903,-94.0367,4.0,10.72704992,340.9568161,12.21,'11111222,11111222,11111222' 
TABS,ioos:station:wmo:42046:1,2015-01-04T14:00:00Z,27.8903,-94.0367,4.0,11.19225625,343.119161,12.91,'11111222,11111222,11111222' 
TABS,ioos:station:wmo:42046:1,2015-01-04T14:30:00Z,27.8903,-94.0367,4.0,11.13959604,348.3469207,12.78,'11111222,11111222,11111222' 
TABS,ioos:station:wmo:42046:1,2015-01-04T15:00:00Z,27.8903,-94.0367,4.0,10.17126344,348.0270248,12.22,'11111222,11111222,11111222' 
TABS,ioos:station:wmo:42046:1,2015-01-04T15:30:00Z,27.8903,-94.0367,4.0,9.725764751,353.8612883,12.0,'11111222,11111222,11111222' 
TABS,ioos:station:wmo:42046:1,2015-01-04T16:00:00Z,27.8903,-94.0367,4.0,10.04805454,352.8535719,12.23,'11111222,11111222,11111222' 
TABS,ioos:station:wmo:42046:1,2015-01-04T16:30:00Z,27.8903,-94.0367,4.0,10.12138824,2.718016387,11.53,'11111222,11111222,11111222' 
TABS,ioos:station:wmo:42046:1,2015-01-04T17:00:00Z,27.8903,-94.0367,4.0,10.9505525,6.027952113,13.05,'11111222,11111222,11111222' 
TABS,ioos:station:wmo:42046:1,2015-01-04T17:30:00Z,27.8903,-94.0367,4.0,10.79841192,4.833921505,12.49,'11111222,11111222,11111222' 
TABS,ioos:station:wmo:42046:1,2015-01-04T18:00:00Z,27.8903,-94.0367,4.0,9.933468679,8.276700811,11.88,'11111222,11111222,11111222' 
TABS,ioos:station:wmo:42046:1,2015-01-04T18:30:00Z,27.8903,-94.0367,4.0,8.964290268,5.697649679,10.6,'11111222,11111222,11111222' 